Terminal Aerodrome Forecast
Issued by NWS Mobile, AL

Home | Current Version | Previous Version | Text Only | Print | Product List | Glossary On
Versions: 1 2 3 4 5 6 7 8 9 10 11 12 13 14 15 16 17 18 19 20 21 22 23 24 25 26 27 28 29 30 31 32 33 34
000
FTUS44 KMOB 011700
TAFPNS
TAF
KPNS 011731Z 0118/0218 07006KT 3SM BR OVC003
      TEMPO 0118/0120 1 1/2SM -DZ BR OVC003
     FM012000 10007KT 5SM BR OVC006
     FM020100 08004KT 2SM -DZ BR OVC003
     FM020500 08004KT 1/2SM FG VV002=

USA.gov is the U.S. government's official web portal to all federal, state and local government web resources and services.